Погода в Майсуре

Индия     12°11′25″N   76°52′40″E
темп.,
°C
ветер,
м/с
пор.,
м/с
влажн.,
%
обл.,
%
осадки,
мм/ч
давл.,
гПа
погр.,
м
1 августа, вс
вс123:30+22зюз510790 0.0 1013602
02:30+21зюз410825 0.0 1011476
05:30+20зюз388870 0.0 1011331
08:30+24зюз6967100 0.0 1012902
11:30+27з7953100 0.0 10111661
14:30+28з7948100 0.0 10081998
17:30+27з695197 0.0 10081231
20:30+24з61066100 0.0 1011634
2 августа, пн
пн223:30+22зюз51182100 0.0 1012640
02:30+21зюз51084100 0.0 1010540
05:30+20з488872 0.0 1010360
08:30+24з6106731 0.0 1012985
11:30+29з8104828 0.0 10111757
14:30+29з894591 0.0 10091997
17:30+27з6852100 0.0 10091359
20:30+24з696750 0.0 1012678
3 августа, вт
вт323:30+22з5108041 0.0 1013500
02:30+20з4108510 0.0 1011449
05:30+19з39915 0.0 1012362
08:30+23з696910 0.0 1013785
11:30+29з8104566 0.0 10121773
14:30+30з8941100 0.0 10092257
17:30+28з7851100 0.0 10101498
20:30+24зюз696883 0.0 1013521
4 августа, ср
ср423:30+23зюз597790 0.0 1014519
02:30+22зюз51079100 0.0 1012578
05:30+22зюз51079100 0.0 1013657
08:30+23з6973100 0.0 1014708
11:30+29з81050100 0.0 10121839
14:30+29з91150100 0.0 10101766
17:30+26з71063100 0.0 10111266
20:30+23зюз5117785 0.0 1013901
5 августа, чт
чт523:30+23з61180100 0.0 1013849
02:30+22зюз51182100 0.1 1011709
05:30+21зюз51181100 0.1 1011623
08:30+24зюз6107098 0.0 10121011
11:30+27з8115590 0.0 10111332
14:30+25зюз71064100 0.1 10091022
17:30+24зюз7117287 0.1 1009994
20:30+22зюз51283100 0.0 1011780